Regional Weather Roundup
Issued by NWS Charleston, SC

Home | Current Version | Previous Version | Text Only | Print | Product List | Glossary On
Versions: 1 2 3 4 5 6 7 8 9 10 11 12 13 14 15 16 17 18 19 20 21 22 23 24 25 26 27 28 29 30 31 32 33 34 35 36 37 38 39 40 41 42 43 44 45 46 47 48 49 50
000
ASUS42 KCHS 292013
RWRCHS

REGIONAL WEATHER ROUNDUP
NATIONAL WEATHER SERVICE CHARLESTON SC
400 PM EDT THU SEP 29 2016

NOTE: "FAIR" INDICATES FEW OR NO CLOUDS BELOW 12,000 FEET WITH NO
SIGNIFICANT WEATHER AND/OR OBSTRUCTIONS TO VISIBILITY.

NOT ALL STATIONS ARE QUALITY CONTROLLED. USE DATA WITH CAUTION...
ESPECIALLY DEWPOINT OBSERVATIONS.

SCZ027-030-031-034>040-042>050-292100-
...SOUTHEAST SOUTH CAROLINA...

CITY           SKY/WX    TMP DP  RH WIND       PRES   REMARKS
N CHARLESTON   MOSUNNY   87  73  62 S12       29.91F HX  94
WATERFRONT PRK   N/A     82  76  82 S13       29.91F
MOUNT PLEASANT FAIR      84  75  74 S8        29.92F HX  92
JOHNS ISLAND   FAIR      84  75  74 S12       29.93F HX  92
PINOPOLIS        N/A     88  70  55 SW5       29.85F HX  92
MONCKS CORNER  FAIR      88  66  48 SW9       29.91F HX  90
SUMMERVILLE    FAIR      90  68  48 S5        29.92F HX  93
BEAUFORT MCAS  MOSUNNY   90  68  48 S7        29.92F HX  94
BEAUFORT ARPT  FAIR      86  70  58 S3        29.92F HX  90
HILTON HEAD IS MOSUNNY   90  73  58 S14       29.94F HX  98
WALTERBORO     CLEAR     90  61  37 SW13      29.93S
ALLENDALE      FAIR      88  55  33 S9        29.92S

...SOUTHERN MIDLANDS AND PEE DEE...

CITY           SKY/WX    TMP DP  RH WIND       PRES   REMARKS
GEORGETOWN     MOCLDY    79  68  69 N8        29.96R THUNDER
KINGSTREE      FAIR      82  70  65 NE6       29.92F
ORANGEBURG     SUNNY     87  58  37 S15       29.92F
BARNWELL       NOT AVBL
AIKEN          FAIR      86  52  30 S9        29.95F
MANNING        FAIR      88  64  45 SW7       29.91S
COLUMBIA       MOSUNNY   90  51  26 SW13G20   29.89F
SUMTER         SUNNY     89  64  44 S13       29.89S HX  90
FLORENCE       CLOUDY    80  72  76 E14       29.94S
MYRTLE BEACH   PTSUNNY   81  63  54 N9        29.99R
N MYRTLE BEACH PTSUNNY   82  73  74 S13       29.96R

$$

GAZ063-065-086>088-099>101-113>116-118-119-134>141-150-292100-
...SOUTHEAST GEORGIA...

CITY           SKY/WX    TMP DP  RH WIND       PRES   REMARKS
SAVANNAH ARPT  MOSUNNY   90  61  37 SW7       29.92F HX  90
HUNTER AAF     SUNNY     90  74  58 SW8       29.91F HX  99
FORT STEWART   MOSUNNY   89  66  46 S7        29.90F HX  92
STATESBORO     MOSUNNY   88  68  51 SW6       29.92F HX  91
SYLVANIA       NOT AVBL
CLAXTON        FAIR      87  67  52 SW3       29.92F HX  90

...CSRA...CENTRAL AND FAR SOUTHEAST GEORGIA...

CITY           SKY/WX    TMP DP  RH WIND       PRES   REMARKS
THOMSON        SUNNY     89  53  29 W12       29.94F
AUGUSTA-BUSH   SUNNY     89  53  29 S8        29.89F
AUGUSTA-DANIEL SUNNY     90  45  21 SW12G20   29.91F
SWAINSBORO     MOCLDY    86  63  45 S5        29.93F
VIDALIA        MOSUNNY   91  68  46 W9        29.92F HX  95
EASTMAN        MOCLDY    88  37  16 W3        29.94F
HAZLEHURST     FAIR      91  64  41 N7        29.91F HX  92
ALMA           MOSUNNY   88  68  51 S9        29.92F HX  91
WAYCROSS       MOSUNNY   93  71  49 SW12      29.92F HX 100
JESUP          MOCLDY    88  73  62 SW3       29.93F HX  96
BAXLEY         FAIR      88  72  58 S6        29.92F HX  94
BRUNSWICK      MOSUNNY   88  77  70 SE8       29.94F HX 100
SAINT SIMONS   PTSUNNY   84  72  67 S7        29.93F

$$

SCZ027-028-034-036>038-045-046-048>050-GAZ119-141-292100-
...LAKE AND SUPPLEMENTAL COASTAL OBSERVATIONS...

STATION/POSITION TIME  TEMP    WIND        PRES    WAVE   SWELL
                       AIR SEA DIR/SP/G            HT/PER HT/PER/DIR
                 (UTC) (F)     (DEG/KT/KT) (MB)    (FT/S) (FT/S/D)
WINYAH BAY       NOT AVBL
LAKE MURRAY      1920   85     240/  9/ 12 1012.2F
ACE BASIN NERRS  1845   88     220/  1     1014.0
FORT PULASKI     1948   86 82  180/  5/  8 1013.8F
SAPELO ISLAND    1900   85     140/  5     1014.0

$$

ANZ835-935-AMZ111-154-330-350-352-354-370-450-454-472-292100-
...C-MAN AND BUOY OBSERVATIONS...

STATION/POSITION TIME  TEMP    WIND        PRES    WAVE   SWELL
                       AIR SEA DIR/SP/G            HT/PER HT/PER/DIR
                 (UTC) (F)     (DEG/KT/KT) (MB)    (FT/S) (FT/S/D)
BUOY 41004       1950   81 82  200/ 16/ 17 1013.3F   4/ 5   2/ 90/11
BUOY 41008       1950   82 83  160/  8/  8 1014.0F   2/10   2/ 80/10
FOLLY BEACH CMAN 2000   80     210/ 14/ 16 1013.7F
CAPERS NEARSHORE 1908   81 82  220/ 16/ 19 1013.4F
FRIPP NEARSHORE  1908   82 82  190/ 10/ 12 1014.1F


STATION/POSITION TIME  TEMP    WIND        PRES    WAVE   SWELL
                       AIR SEA DIR/SP/G            HT/PER HT/PER/DIR
                 (UTC) (F)     (DEG/KT/KT) (MB)    (FT/S) (FT/S/D)
5E ST. MARYS GA  1931      83                N/A     2/10   2/ 80/11
FRYING PAN BUOY  1950   80 82  180/ 10/ 12 1015.1R   4/ 5   3/220/ 5
BUOY 41025       1950   80 80  310/  4/  6 1016.4R   4/10   3/ 80/10
CAPE LOOKOUT NC  2000   75      50/ 10/ 11 1015.8F
BUOY 41002       1950   81 83  220/ 10/ 12 1016.9F   3/ 5   3/160/ 5
BUOY 41010       NOT AVBL
ST AUGUSTINE FL  2000   83 84  220/ 10/ 12 1015.6F


$$



USA.gov is the U.S. government's official web portal to all federal, state and local government web resources and services.